Location: Unspecified
(0.0000°N, 0.0000°E)
Time: 09:09:27
(UTC+02:00)

PROBA 2 - Visible Passes

Search period start: 30 April 2016 00:00
Search period end: 10 May 2016 00:00
Orbit: 706 x 726 km, 98.3° (Epoch: 28 April)

Date Brightness Start Highest point End Pass type
(mag) Time Alt. Az. Time Alt. Az. Time Alt. Az.
01 May ? 20:42:58 10° N 20:47:29 45° WNW 20:52:03 10° SSW visible
02 May ? 07:29:51 10° ESE 07:33:15 19° ENE 07:36:39 10° NNE visible
02 May ? 21:33:11 10° WNW 21:34:18 11° WNW 21:35:26 10° W visible
03 May ? 20:38:48 10° N 20:43:24 51° WNW 20:48:03 10° SSW visible
04 May ? 07:26:05 10° ESE 07:29:11 17° ENE 07:32:15 10° NE visible
04 May ? 21:28:16 10° NW 21:30:14 12° WNW 21:32:11 10° WSW visible
05 May ? 20:34:38 10° N 20:39:19 58° WNW 20:44:02 10° SSW visible
06 May ? 07:22:23 10° ESE 07:25:06 15° ENE 07:27:48 10° NE visible
06 May ? 21:23:39 10° NW 21:26:08 14° WNW 21:28:38 10° WSW visible
07 May ? 20:30:30 10° N 20:35:14 67° WNW 20:40:00 10° SSW visible
08 May ? 07:18:48 10° ESE 07:21:01 13° ENE 07:23:14 10° NE visible
08 May ? 21:19:09 10° NW 21:22:04 16° WNW 21:24:58 10° WSW visible
09 May ? 20:26:23 10° N 20:31:08 76° WNW 20:35:56 10° SSW visible
